SCP
0 0 0 0 0 0 0 0 0 0 0 0 0 0 0 0 0 0 0 0 0 0 0 0 0 0 0 0 0 0 0 0 0 0 0 0 0 0 0 0 0 0 0
0 0 0 0 0 0 0 0 0 0 0 0 0 0 0 0 0 0 0 0 0 0 0 0 0 0 0 0 0 0 0 0 0 0 0 0 0 0 0 0 0 0 0
0 0 0 0 0 0 0 0 0 0 0 0 0 0 0 0 0 0 0 0 0 0 0 0 0 0 0 0 0 0 0 0 0 0 0 0 0 0 0 0 0 0 0
0 0 0 0 0 0 0 0 0 0 0 0 0 0 0 0 0 0 0 0 0 0 0 0 0 0 0 0 0 0 0 0 0 0 0 0 0 0 0 0 0 0 0
0 0 0 0 0 0 0 0 0 0 0 0 0 0 0 0 0 0 0 0 0 0 0 0 0 0 0 0 0 0 0 0 0 0 0 0 0 0 0 0 0 0 0
0 0 0 0 0 0 0 0 0 0 0 0 0 0 0 0 0 0 0 0 0 0 0 0 0 0 0 0 0 0 0 0 0 0 0 0 0 0 0 0 0 0 0
0 0 0 0 0 0 0 0 0 0 0 0 0 0 0 0 0 0 0 0 0 0 0 0 0 0 0 0 0 0 0 0 0 0 0 0 0 0 0 0 0 0 0
0 0 0 0 0 0 0 0 0 0 0 0 0 0 0 0 0 0 0 0 0 0 0 0 0 0 0 0 0 0 0 0 0 0 0 0 0 0 0 0 0 0 0
0 0 0 0 0 0 0 0 0 0 0 0 0 0 0 0 0 0 0 0 0 0 0 0 0 0 0 0 0 0 0 0 0 0 0 0 0 0 0 0 0 0 0
0 0 0 0 0 0 0 0 0 0 0 0 0 0 0 0 0 0 0 0 0 0 0 0 0 0 0 0 0 0 0 0 0 0 0 0 0 0 0 0 0 0 0
0 0 0 0 0 0 0 0 0 0 0 0 0 0 0 0 0 0 0 0 0 0 0 0 0 0 0 0 0 0 0 0 0 0 0 0 0 0 0 0 0 0 0
0 0 0 0 0 0 0 0 0 0 0 0 0 0 0 0 0 0 0 0 0 0 0 0 0 0 0 0 0 0 0 0 0 0 0 0 0 0 0 0 0 0 0
0 0 0 0 0 0 0 0 0 0 0 0 0 0 0 0 0 0 0 0 0 0 0 0 0 0 0 0 0 0 0 0 0 0 0 0 0 0 0 0 0 0 0
0 0 0 0 0 0 0 0 0 0 0 0 0 0 0 0 0 0 0 0 0 0 0 0 0 0 0 0 0 0 0 0 0 0 0 0 0 0 0 0 0 0 0
0 0 0 0 0 0 0 0 0 0 0 0 0 0 0 0 0 0 0 0 0 0 0 0 0 0 0 0 0 0 0 0 0 0 0 0 0 0 0 0 0 0 0
0 0 0 0 0 0 0 0 0 0 0 0 0 0 0 0 -0 -0 -0 -0 0 0 0 0 0 0 0 0 0 0 0 0 0 0 0 0 0 0 0 0 0 0 0
0 0 0 0 0 0 0 0 0 0 0 0 0 0 -0 -0 -0 -0 -0 0 0 0 0 0 0 0 0 0 0 0 0 0 0 0 0 0 0 0 0 0 0 0 0
0 0 0 0 0 0 0 0 0 0 0 0 -0 0 -0 -0 -0 -0 -0 0 0 0 0 0 0 0 0 0 0 0 0 0 0 0 0 0 0 0 0 0 0 0 0
0 0 0 0 0 0 0 0 0 0 0 0 0 0 0 -0 -0 -0 -0 0 0 0 0 0 0 0 0 0 0 0 0 0 0 0 0 0 0 0 0 0 0 0 0
0 0 0 0 0 0 0 0 0 0 0 0 0 0 0 0 0 0 0 0 0 0 0 0 0 0 0 0 0 0 0 0 0 0 0 0 0 0 0 0 0 0 0
0 0 0 0 0 0 0 0 0 0 0 0 0 0 0 0 0 0 0 0 0 0 0 0 0 0 0 0 0 0 0 0 0 0 0 0 0 0 0 0 0 0 0
0 0 0 0 0 0 0 0 0 0 0 0 0 0 0 0 0 0 0 0 0 0 0 0 0 0 0 0 0 0 0 0 0 0 0 0 0 0 0 0 0 0 0
0 0 0 0 0 0 0 0 0 0 0 0 0 0 0 0 0 0 0 0 0 0 0 0 0 0 0 0 0 0 0 0 0 0 0 0 0 0 0 0 0 0 0
0 0 0 0 0 0 0 0 0 0 0 0 0 0 0 0 0 0 0 0 0 0 0 0 0 0 0 0 0 0 0 0 0 0 0 0 0 0 0 0 0 0 0
0 0 0 0 0 0 0 0 0 0 0 0 0 0 0 0 0 0 0 0 0 0 0 0 0 0 0 0 0 0 0 0 0 0 0 0 0 0 0 0 0 0 0
0 0 0 0 0 0 0 0 0 0 0 0 0 0 0 0 0 0 0 0 0 0 0 0 0 0 0 0 0 0 0 0 0 0 0 0 0 0 0 0 0 0 0
Wind_Speed_500mb
16 15 17 20 21 21 21 23 26 27 28 28 27 25 23 22 21 20 19 17 16 14 12 10 10 12 13 10 8 6 4 4 4 15 24 29 32 34 36 38 37 38 40
23 21 23 23 23 24 25 27 28 29 30 28 27 26 24 23 23 21 20 18 15 12 11 12 13 12 9 7 7 6 7 7 9 12 21 27 32 34 37 39 39 42 46
27 26 26 26 26 26 29 29 31 32 31 30 30 28 26 24 22 21 19 16 12 12 13 13 11 8 6 5 8 10 9 9 11 14 19 25 31 36 39 40 43 41 47
27 27 27 26 27 29 31 33 33 33 31 29 28 26 25 23 20 18 18 16 16 15 14 13 9 6 5 6 6 7 8 10 13 15 19 24 30 37 44 51 51 50 56
24 26 27 25 26 31 34 35 35 34 32 30 28 27 26 24 22 19 17 16 17 14 12 9 6 7 7 6 6 8 10 12 15 17 20 25 33 41 49 53 55 60 58
27 25 23 25 29 33 37 38 37 36 34 31 29 27 26 26 21 19 19 17 16 15 12 9 8 6 4 5 6 9 12 14 17 19 22 28 34 40 44 48 54 62 65
24 21 22 26 33 38 40 40 38 36 34 32 31 29 29 26 22 20 18 18 17 17 15 12 9 5 5 5 8 10 12 15 18 23 26 29 34 39 44 45 48 52 57
21 19 21 29 34 39 40 41 41 38 37 36 35 34 32 29 23 21 19 21 21 20 18 14 12 6 3 5 7 10 12 16 21 26 29 30 32 36 40 45 50 53 53
27 28 29 31 35 41 43 43 42 41 40 38 37 35 32 29 23 22 21 23 23 22 20 17 13 7 4 4 6 8 14 20 23 26 29 31 33 36 39 42 46 53 59
36 33 34 37 40 43 44 44 42 41 40 40 38 36 33 28 26 23 23 23 23 21 19 16 15 10 5 4 7 10 15 20 24 26 28 30 32 35 38 41 44 48 51
41 42 44 45 45 47 47 46 44 43 42 41 40 38 35 32 29 27 22 21 24 24 20 18 14 12 7 7 9 12 18 23 26 28 29 30 33 35 37 38 41 44 47
49 51 51 52 53 51 48 48 44 44 44 43 41 40 37 35 33 31 24 20 26 26 23 20 13 12 12 12 13 16 20 25 27 28 30 30 31 33 36 37 38 40 43
54 57 58 57 57 53 50 49 46 48 47 47 45 44 41 39 36 33 21 26 26 27 24 20 15 15 16 15 16 19 22 25 26 28 30 31 33 34 36 37 38 38 39
62 62 61 59 60 56 53 51 51 51 50 50 48 48 44 43 41 35 28 27 26 26 26 23 18 17 16 18 20 21 24 25 27 29 30 33 34 35 37 40 44 46 47
68 67 64 62 62 59 55 53 50 51 48 48 48 49 46 44 41 35 30 26 25 25 24 23 20 18 18 20 22 24 25 26 28 29 32 34 36 36 37 41 45 47 50
75 73 68 63 62 59 54 50 53 51 44 43 43 40 37 35 36 36 36 32 30 29 28 25 22 22 23 24 25 26 27 27 28 31 34 35 36 37 39 40 43 46 50
73 70 67 65 60 58 56 59 55 46 43 41 43 42 41 40 41 42 39 36 36 33 31 26 25 26 27 26 28 30 29 27 29 33 35 36 36 36 38 40 43 46 48
67 67 66 61 59 60 62 57 52 51 50 50 49 46 45 45 44 40 39 37 38 37 32 28 28 29 29 30 30 30 30 30 31 33 34 35 36 36 37 39 41 46 49
61 62 61 60 61 61 57 54 53 52 54 56 53 53 50 46 43 40 38 41 38 31 30 30 31 32 32 31 31 32 33 32 33 33 34 35 36 37 38 40 42 44 48
57 58 57 58 58 57 54 54 54 56 58 59 56 57 55 54 51 51 52 55 47 39 34 34 34 34 34 34 34 35 34 33 34 34 35 35 36 37 39 41 43 45 44
49 51 52 54 55 54 54 55 57 59 61 58 57 56 48 52 54 55 54 50 43 38 38 38 38 38 37 37 37 35 34 35 35 35 35 36 36 37 39 40 42 44 46
47 49 49 51 52 53 54 54 56 59 60 59 60 55 51 52 54 54 50 46 42 42 42 43 43 42 40 39 38 37 36 35 36 36 35 36 37 37 38 39 40 41 43
46 45 45 49 51 52 53 55 58 60 61 62 62 58 59 59 56 53 49 45 44 45 45 46 44 42 40 40 40 38 36 35 36 36 36 37 37 37 38 38 39 38 38
42 42 45 49 52 54 55 58 59 61 64 65 65 61 61 59 54 50 47 47 48 47 47 45 42 41 41 41 40 38 36 36 37 35 37 38 38 37 37 37 37 36 35
44 45 48 50 52 54 55 59 61 65 67 66 65 62 61 60 56 52 49 50 49 49 47 44 42 42 42 41 39 37 36 37 37 36 36 36 37 36 36 36 35 33 31
46 48 50 52 54 55 59 62 65 67 67 66 65 62 61 59 56 53 51 51 50 48 46 45 45 43 42 41 39 38 37 36 37 36 38 36 36 35 35 34 32 29 28
Wind_Direction_500mb
230 256 276 282 283 289 301 311 315 317 317 313 310 308 307 304 299 295 289 285 284 288 289 293 304 313 317 321 324 327 322 294 248 297 310 317 324 332 334 337 340 335 330
245 261 268 277 285 291 300 303 304 310 308 305 304 301 297 293 289 285 279 274 271 270 280 294 300 305 318 333 343 11 2 334 310 303 313 324 330 334 338 339 341 337 332
258 271 281 285 286 288 295 300 303 302 301 300 299 296 293 290 286 282 277 271 265 272 286 290 295 306 329 0 347 340 346 344 340 333 329 334 334 334 334 336 339 339 334
271 280 283 281 282 290 296 296 295 294 292 290 288 286 284 281 276 273 267 263 269 278 278 279 283 296 318 329 333 345 354 353 352 348 340 339 334 337 340 339 338 339 337
269 265 265 274 283 286 287 286 284 281 280 279 278 276 275 272 268 263 258 263 269 269 269 276 274 282 297 322 340 358 1 0 0 354 344 342 339 342 344 343 338 337 343
245 252 261 270 275 278 278 277 277 276 275 273 272 271 267 265 259 247 253 256 260 261 248 242 261 283 303 331 348 353 0 3 357 354 349 346 341 340 339 338 339 341 344
234 246 265 276 277 275 276 277 275 274 272 269 266 264 262 263 254 245 252 258 243 234 238 240 241 261 303 334 347 353 354 354 356 354 343 342 340 336 335 336 338 339 339
239 257 281 281 282 279 276 274 271 270 268 265 261 257 255 259 253 251 242 230 231 231 231 230 234 215 258 318 337 339 345 353 351 344 338 333 334 335 337 339 337 334 336
243 266 283 281 283 281 275 272 270 267 262 258 255 250 250 257 249 256 240 228 224 223 223 219 227 233 215 288 309 333 345 343 338 335 335 334 333 335 337 335 333 335 340
258 275 275 278 278 278 273 269 266 261 256 252 249 248 245 242 255 246 227 232 230 227 222 214 231 250 231 289 328 332 331 334 334 333 333 332 332 334 333 334 337 340 341
263 272 277 278 278 276 269 264 261 256 251 248 245 244 239 242 242 235 219 235 241 237 229 225 222 253 291 298 312 321 328 329 326 325 327 331 331 330 331 335 337 336 335
270 275 279 279 273 269 265 259 254 251 249 248 243 239 239 240 241 232 212 223 235 236 233 238 239 258 283 297 309 315 321 319 316 320 325 326 325 326 328 330 333 334 335
273 280 279 274 269 265 260 255 250 249 248 246 240 237 237 231 230 235 210 219 224 230 234 237 241 259 278 291 298 307 310 306 311 317 320 322 323 323 325 327 330 334 338
279 278 274 271 266 260 256 252 249 248 249 243 240 237 234 228 225 232 218 219 222 228 231 237 246 256 271 284 293 298 298 302 309 313 318 319 319 322 325 329 333 336 337
280 277 273 268 262 257 252 252 251 258 252 251 247 243 237 230 230 231 230 226 229 233 235 241 251 263 273 281 286 290 295 299 305 313 316 316 317 321 326 330 333 335 339
277 274 269 265 259 253 251 250 254 252 246 244 242 239 236 228 227 229 231 232 232 236 239 245 256 266 272 277 283 287 290 298 309 314 313 313 315 320 324 327 330 334 336
272 271 267 263 256 252 247 249 247 245 235 231 231 227 220 220 222 227 231 231 234 234 237 245 257 265 271 277 282 285 292 302 309 308 308 311 314 317 320 325 329 332 334
272 270 265 257 251 250 248 249 245 239 228 221 222 220 219 220 222 226 233 230 224 223 234 246 259 267 271 274 278 284 291 298 302 304 308 310 310 314 319 323 328 330 332
270 265 260 253 248 250 247 243 240 233 226 225 219 215 215 219 220 219 212 224 229 232 240 252 261 267 271 275 280 284 288 294 301 307 307 305 308 314 319 324 326 329 330
265 261 256 251 248 243 239 235 231 226 224 225 220 219 215 211 208 210 211 227 238 244 248 255 263 270 275 277 278 280 286 295 302 305 304 305 308 313 318 321 323 326 329
263 259 255 248 243 239 234 230 226 225 225 223 219 221 221 223 222 224 223 233 237 243 253 260 267 272 275 276 277 281 288 296 301 302 304 305 306 310 314 317 320 323 325
264 258 250 243 238 233 229 226 225 226 225 221 218 219 219 220 223 226 231 235 241 249 255 261 266 271 273 275 278 282 287 293 298 301 303 301 302 307 310 314 318 321 323
256 249 240 234 231 228 225 224 223 223 221 219 219 219 220 223 228 230 235 241 246 251 256 260 264 269 273 274 276 278 283 290 294 299 300 299 300 303 307 312 316 319 321
245 239 233 229 226 225 224 224 223 220 219 218 221 221 224 232 234 237 240 244 249 253 258 261 266 271 272 272 274 277 280 285 291 297 297 297 298 301 304 308 312 317 319
240 234 231 229 227 227 225 224 221 219 219 220 224 226 229 235 239 241 243 247 250 255 260 265 269 270 271 273 275 276 276 281 289 295 294 292 293 297 301 305 310 315 317
240 236 233 231 229 227 226 223 220 220 221 224 227 230 234 238 242 244 247 249 251 256 261 265 267 269 270 272 274 275 275 277 283 287 290 291 291 294 296 299 305 310 315
Wind_Speed_850mb
16 15 17 20 21 21 21 23 26 27 28 28 27 25 23 22 21 20 19 17 16 14 12 10 10 12 13 10 8 6 4 4 4 15 24 29 32 34 36 38 37 38 40
23 21 23 23 23 24 25 27 28 29 30 28 27 26 24 23 23 21 20 18 15 12 11 12 13 12 9 7 7 6 7 7 9 12 21 27 32 34 37 39 39 42 46
27 26 26 26 26 26 29 29 31 32 31 30 30 28 26 24 22 21 19 16 12 12 13 13 11 8 6 5 8 10 9 9 11 14 19 25 31 36 39 40 43 41 47
27 27 27 26 27 29 31 33 33 33 31 29 28 26 25 23 20 18 18 16 16 15 14 13 9 6 5 6 6 7 8 10 13 15 19 24 30 37 44 51 51 50 56
24 26 27 25 26 31 34 35 35 34 32 30 28 27 26 24 22 19 17 16 17 14 12 9 6 7 7 6 6 8 10 12 15 17 20 25 33 41 49 53 55 60 58
27 25 23 25 29 33 37 38 37 36 34 31 29 27 26 26 21 19 19 17 16 15 12 9 8 6 4 5 6 9 12 14 17 19 22 28 34 40 44 48 54 62 65
24 21 22 26 33 38 40 40 38 36 34 32 31 29 29 26 22 20 18 18 17 17 15 12 9 5 5 5 8 10 12 15 18 23 26 29 34 39 44 45 48 52 57
21 19 21 29 34 39 40 41 41 38 37 36 35 34 32 29 23 21 19 21 21 20 18 14 12 6 3 5 7 10 12 16 21 26 29 30 32 36 40 45 50 53 53
27 28 29 31 35 41 43 43 42 41 40 38 37 35 32 29 23 22 21 23 23 22 20 17 13 7 4 4 6 8 14 20 23 26 29 31 33 36 39 42 46 53 59
36 33 34 37 40 43 44 44 42 41 40 40 38 36 33 28 26 23 23 23 23 21 19 16 15 10 5 4 7 10 15 20 24 26 28 30 32 35 38 41 44 48 51
41 42 44 45 45 47 47 46 44 43 42 41 40 38 35 32 29 27 22 21 24 24 20 18 14 12 7 7 9 12 18 23 26 28 29 30 33 35 37 38 41 44 47
49 51 51 52 53 51 48 48 44 44 44 43 41 40 37 35 33 31 24 20 26 26 23 20 13 12 12 12 13 16 20 25 27 28 30 30 31 33 36 37 38 40 43
54 57 58 57 57 53 50 49 46 48 47 47 45 44 41 39 36 33 21 26 26 27 24 20 15 15 16 15 16 19 22 25 26 28 30 31 33 34 36 37 38 38 39
62 62 61 59 60 56 53 51 51 51 50 50 48 48 44 43 41 35 28 27 26 26 26 23 18 17 16 18 20 21 24 25 27 29 30 33 34 35 37 40 44 46 47
68 67 64 62 62 59 55 53 50 51 48 48 48 49 46 44 41 35 30 26 25 25 24 23 20 18 18 20 22 24 25 26 28 29 32 34 36 36 37 41 45 47 50
75 73 68 63 62 59 54 50 53 51 44 43 43 40 37 35 36 36 36 32 30 29 28 25 22 22 23 24 25 26 27 27 28 31 34 35 36 37 39 40 43 46 50
73 70 67 65 60 58 56 59 55 46 43 41 43 42 41 40 41 42 39 36 36 33 31 26 25 26 27 26 28 30 29 27 29 33 35 36 36 36 38 40 43 46 48
67 67 66 61 59 60 62 57 52 51 50 50 49 46 45 45 44 40 39 37 38 37 32 28 28 29 29 30 30 30 30 30 31 33 34 35 36 36 37 39 41 46 49
61 62 61 60 61 61 57 54 53 52 54 56 53 53 50 46 43 40 38 41 38 31 30 30 31 32 32 31 31 32 33 32 33 33 34 35 36 37 38 40 42 44 48
57 58 57 58 58 57 54 54 54 56 58 59 56 57 55 54 51 51 52 55 47 39 34 34 34 34 34 34 34 35 34 33 34 34 35 35 36 37 39 41 43 45 44
49 51 52 54 55 54 54 55 57 59 61 58 57 56 48 52 54 55 54 50 43 38 38 38 38 38 37 37 37 35 34 35 35 35 35 36 36 37 39 40 42 44 46
47 49 49 51 52 53 54 54 56 59 60 59 60 55 51 52 54 54 50 46 42 42 42 43 43 42 40 39 38 37 36 35 36 36 35 36 37 37 38 39 40 41 43
46 45 45 49 51 52 53 55 58 60 61 62 62 58 59 59 56 53 49 45 44 45 45 46 44 42 40 40 40 38 36 35 36 36 36 37 37 37 38 38 39 38 38
42 42 45 49 52 54 55 58 59 61 64 65 65 61 61 59 54 50 47 47 48 47 47 45 42 41 41 41 40 38 36 36 37 35 37 38 38 37 37 37 37 36 35
44 45 48 50 52 54 55 59 61 65 67 66 65 62 61 60 56 52 49 50 49 49 47 44 42 42 42 41 39 37 36 37 37 36 36 36 37 36 36 36 35 33 31
46 48 50 52 54 55 59 62 65 67 67 66 65 62 61 59 56 53 51 51 50 48 46 45 45 43 42 41 39 38 37 36 37 36 38 36 36 35 35 34 32 29 28
Wind_Direction_850mb
230 256 276 282 283 289 301 311 315 317 317 313 310 308 307 304 299 295 289 285 284 288 289 293 304 313 317 321 324 327 322 294 248 297 310 317 324 332 334 337 340 335 330
245 261 268 277 285 291 300 303 304 310 308 305 304 301 297 293 289 285 279 274 271 270 280 294 300 305 318 333 343 11 2 334 310 303 313 324 330 334 338 339 341 337 332
258 271 281 285 286 288 295 300 303 302 301 300 299 296 293 290 286 282 277 271 265 272 286 290 295 306 329 0 347 340 346 344 340 333 329 334 334 334 334 336 339 339 334
271 280 283 281 282 290 296 296 295 294 292 290 288 286 284 281 276 273 267 263 269 278 278 279 283 296 318 329 333 345 354 353 352 348 340 339 334 337 340 339 338 339 337
269 265 265 274 283 286 287 286 284 281 280 279 278 276 275 272 268 263 258 263 269 269 269 276 274 282 297 322 340 358 1 0 0 354 344 342 339 342 344 343 338 337 343
245 252 261 270 275 278 278 277 277 276 275 273 272 271 267 265 259 247 253 256 260 261 248 242 261 283 303 331 348 353 0 3 357 354 349 346 341 340 339 338 339 341 344
234 246 265 276 277 275 276 277 275 274 272 269 266 264 262 263 254 245 252 258 243 234 238 240 241 261 303 334 347 353 354 354 356 354 343 342 340 336 335 336 338 339 339
239 257 281 281 282 279 276 274 271 270 268 265 261 257 255 259 253 251 242 230 231 231 231 230 234 215 258 318 337 339 345 353 351 344 338 333 334 335 337 339 337 334 336
243 266 283 281 283 281 275 272 270 267 262 258 255 250 250 257 249 256 240 228 224 223 223 219 227 233 215 288 309 333 345 343 338 335 335 334 333 335 337 335 333 335 340
258 275 275 278 278 278 273 269 266 261 256 252 249 248 245 242 255 246 227 232 230 227 222 214 231 250 231 289 328 332 331 334 334 333 333 332 332 334 333 334 337 340 341
263 272 277 278 278 276 269 264 261 256 251 248 245 244 239 242 242 235 219 235 241 237 229 225 222 253 291 298 312 321 328 329 326 325 327 331 331 330 331 335 337 336 335
270 275 279 279 273 269 265 259 254 251 249 248 243 239 239 240 241 232 212 223 235 236 233 238 239 258 283 297 309 315 321 319 316 320 325 326 325 326 328 330 333 334 335
273 280 279 274 269 265 260 255 250 249 248 246 240 237 237 231 230 235 210 219 224 230 234 237 241 259 278 291 298 307 310 306 311 317 320 322 323 323 325 327 330 334 338
279 278 274 271 266 260 256 252 249 248 249 243 240 237 234 228 225 232 218 219 222 228 231 237 246 256 271 284 293 298 298 302 309 313 318 319 319 322 325 329 333 336 337
280 277 273 268 262 257 252 252 251 258 252 251 247 243 237 230 230 231 230 226 229 233 235 241 251 263 273 281 286 290 295 299 305 313 316 316 317 321 326 330 333 335 339
277 274 269 265 259 253 251 250 254 252 246 244 242 239 236 228 227 229 231 232 232 236 239 245 256 266 272 277 283 287 290 298 309 314 313 313 315 320 324 327 330 334 336
272 271 267 263 256 252 247 249 247 245 235 231 231 227 220 220 222 227 231 231 234 234 237 245 257 265 271 277 282 285 292 302 309 308 308 311 314 317 320 325 329 332 334
272 270 265 257 251 250 248 249 245 239 228 221 222 220 219 220 222 226 233 230 224 223 234 246 259 267 271 274 278 284 291 298 302 304 308 310 310 314 319 323 328 330 332
270 265 260 253 248 250 247 243 240 233 226 225 219 215 215 219 220 219 212 224 229 232 240 252 261 267 271 275 280 284 288 294 301 307 307 305 308 314 319 324 326 329 330
265 261 256 251 248 243 239 235 231 226 224 225 220 219 215 211 208 210 211 227 238 244 248 255 263 270 275 277 278 280 286 295 302 305 304 305 308 313 318 321 323 326 329
263 259 255 248 243 239 234 230 226 225 225 223 219 221 221 223 222 224 223 233 237 243 253 260 267 272 275 276 277 281 288 296 301 302 304 305 306 310 314 317 320 323 325
264 258 250 243 238 233 229 226 225 226 225 221 218 219 219 220 223 226 231 235 241 249 255 261 266 271 273 275 278 282 287 293 298 301 303 301 302 307 310 314 318 321 323
256 249 240 234 231 228 225 224 223 223 221 219 219 219 220 223 228 230 235 241 246 251 256 260 264 269 273 274 276 278 283 290 294 299 300 299 300 303 307 312 316 319 321
245 239 233 229 226 225 224 224 223 220 219 218 221 221 224 232 234 237 240 244 249 253 258 261 266 271 272 272 274 277 280 285 291 297 297 297 298 301 304 308 312 317 319
240 234 231 229 227 227 225 224 221 219 219 220 224 226 229 235 239 241 243 247 250 255 260 265 269 270 271 273 275 276 276 281 289 295 294 292 293 297 301 305 310 315 317
240 236 233 231 229 227 226 223 220 220 221 224 227 230 234 238 242 244 247 249 251 256 261 265 267 269 270 272 274 275 275 277 283 287 290 291 291 294 296 299 305 310 315